カタログに戻る

STARLINK-36330

運用中通信SSO
NORAD 67737·PAYLOAD·🇺🇸 United States

打ち上げ Feb 11, 2026 から Vandenberg Space Force Base

Loading…

次のパス (今後24時間)

TLE

最新Source: CelesTrak SupGP

元期: Sep 15, 2026, 04:23 UTC

1 67737C 26026S   26258.18312500 -.00040540  00000+0 -12585-2 0  2584
2 67737  97.2850 310.1197 0000981  89.5460  54.3182 15.33459060    15

AllMySatでSTARLINK-36330をリアルタイム追跡

Download on the App Store